Year,Month,Day,Hour,Minute,Value (Times are PST for barometer in hPa)
2007,11,14,00,00,1030.17
2007,11,14,00,01,1030.14
2007,11,14,00,02,1030.11
2007,11,14,00,03,1030.11
2007,11,14,00,04,1030.14
2007,11,14,00,05,1030.14
2007,11,14,00,06,1030.17
2007,11,14,00,07,1030.18
2007,11,14,00,08,1030.20
2007,11,14,00,09,1030.14
2007,11,14,00,10,1030.11
2007,11,14,00,11,1030.04
2007,11,14,00,12,1030.04
2007,11,14,00,13,1030.04
2007,11,14,00,14,1029.99
2007,11,14,00,15,1029.94
2007,11,14,00,16,1029.97
2007,11,14,00,17,1029.94
2007,11,14,00,18,1029.94
2007,11,14,00,19,1029.94
2007,11,14,00,20,1029.94
2007,11,14,00,21,1029.90
2007,11,14,00,22,1029.90
2007,11,14,00,23,1029.90
2007,11,14,00,24,1029.90
2007,11,14,00,25,1029.87
2007,11,14,00,26,1029.90
2007,11,14,00,27,1029.90
2007,11,14,00,28,1029.90
2007,11,14,00,29,1029.87
2007,11,14,00,30,1029.87
2007,11,14,00,31,1029.84
2007,11,14,00,32,1029.81
2007,11,14,00,33,1029.84
2007,11,14,00,34,1029.80
2007,11,14,00,35,1029.76
2007,11,14,00,36,1029.70
2007,11,14,00,37,1029.70
2007,11,14,00,38,1029.63
2007,11,14,00,39,1029.60
2007,11,14,00,40,1029.57
2007,11,14,00,41,1029.60
2007,11,14,00,42,1029.56
2007,11,14,00,43,1029.56
2007,11,14,00,44,1029.53
2007,11,14,00,45,1029.50
2007,11,14,00,46,1029.53
2007,11,14,00,47,1029.50
2007,11,14,00,48,1029.50
2007,11,14,00,49,1029.50
2007,11,14,00,50,1029.50
2007,11,14,00,51,1029.46
2007,11,14,00,52,1029.43
2007,11,14,00,53,1029.39
2007,11,14,00,54,1029.39
2007,11,14,00,55,1029.36
2007,11,14,00,56,1029.36
2007,11,14,00,57,1029.33
2007,11,14,00,58,1029.32
2007,11,14,00,59,1029.29
2007,11,14,01,00,1029.23
2007,11,14,01,01,1029.23
2007,11,14,01,02,1029.20
2007,11,14,01,03,1029.23
2007,11,14,01,04,1029.23
2007,11,14,01,05,1029.26
2007,11,14,01,06,1029.23
2007,11,14,01,07,1029.22
2007,11,14,01,08,1029.19
2007,11,14,01,09,1029.16
2007,11,14,01,10,1029.15
2007,11,14,01,11,1029.12
2007,11,14,01,12,1029.15
2007,11,14,01,13,1029.12
2007,11,14,01,14,1029.12
2007,11,14,01,15,1029.05
2007,11,14,01,16,1029.02
2007,11,14,01,17,1028.99
2007,11,14,01,18,1028.98
2007,11,14,01,19,1028.92
2007,11,14,01,20,1028.91
2007,11,14,01,21,1028.85
2007,11,14,01,22,1028.82
2007,11,14,01,23,1028.79
2007,11,14,01,24,1028.79
2007,11,14,01,25,1028.73
2007,11,14,01,26,1028.79
2007,11,14,01,27,1028.75
2007,11,14,01,28,1028.72
2007,11,14,01,29,1028.72
2007,11,14,01,30,1028.72
2007,11,14,01,31,1028.75
2007,11,14,01,32,1028.74
2007,11,14,01,33,1028.68
2007,11,14,01,34,1028.68
2007,11,14,01,35,1028.67
2007,11,14,01,36,1028.62
2007,11,14,01,37,1028.58
2007,11,14,01,38,1028.58
2007,11,14,01,39,1028.58
2007,11,14,01,40,1028.51
2007,11,14,01,41,1028.55
2007,11,14,01,42,1028.51
2007,11,14,01,43,1028.51
2007,11,14,01,44,1028.51
2007,11,14,01,45,1028.48
2007,11,14,01,46,1028.45
2007,11,14,01,47,1028.48
2007,11,14,01,48,1028.47
2007,11,14,01,49,1028.41
2007,11,14,01,50,1028.48
2007,11,14,01,51,1028.55
2007,11,14,01,52,1028.51
2007,11,14,01,53,1028.51
2007,11,14,01,54,1028.55
2007,11,14,01,55,1028.51
2007,11,14,01,56,1028.52
2007,11,14,01,57,1028.55
2007,11,14,01,58,1028.48
2007,11,14,01,59,1028.41
2007,11,14,02,00,1028.38
2007,11,14,02,01,1028.31
2007,11,14,02,02,1028.31
2007,11,14,02,03,1028.28
2007,11,14,02,04,1028.28
2007,11,14,02,05,1028.24
2007,11,14,02,06,1028.21
2007,11,14,02,07,1028.21
2007,11,14,02,08,1028.18
2007,11,14,02,09,1028.18
2007,11,14,02,10,1028.14
2007,11,14,02,11,1028.15
2007,11,14,02,12,1028.18
2007,11,14,02,13,1028.18
2007,11,14,02,14,1028.21
2007,11,14,02,15,1028.24
2007,11,14,02,16,1028.24
2007,11,14,02,17,1028.27
2007,11,14,02,18,1028.24
2007,11,14,02,19,1028.24
2007,11,14,02,20,1028.24
2007,11,14,02,21,1028.21
2007,11,14,02,22,1028.18
2007,11,14,02,23,1028.10
2007,11,14,02,24,1028.04
2007,11,14,02,25,1028.00
2007,11,14,02,26,1027.94
2007,11,14,02,27,1027.90
2007,11,14,02,28,1027.86
2007,11,14,02,29,1027.80
2007,11,14,02,30,1027.77
2007,11,14,02,31,1027.77
2007,11,14,02,32,1027.77
2007,11,14,02,33,1027.77
2007,11,14,02,34,1027.70
2007,11,14,02,35,1027.74
2007,11,14,02,36,1027.70
2007,11,14,02,37,1027.67
2007,11,14,02,38,1027.62
2007,11,14,02,39,1027.53
2007,11,14,02,40,1027.53
2007,11,14,02,41,1027.53
2007,11,14,02,42,1027.50
2007,11,14,02,43,1027.50
2007,11,14,02,44,1027.57
2007,11,14,02,45,1027.57
2007,11,14,02,46,1027.57
2007,11,14,02,47,1027.53
2007,11,14,02,48,1027.49
2007,11,14,02,49,1027.46
2007,11,14,02,50,1027.42
2007,11,14,02,51,1027.36
2007,11,14,02,52,1027.33
2007,11,14,02,53,1027.30
2007,11,14,02,54,1027.29
2007,11,14,02,55,1027.26
2007,11,14,02,56,1027.30
2007,11,14,02,57,1027.30
2007,11,14,02,58,1027.30
2007,11,14,02,59,1027.25
2007,11,14,03,00,1027.15
2007,11,14,03,01,1027.06
2007,11,14,03,02,1026.99
2007,11,14,03,03,1026.99
2007,11,14,03,04,1026.96
2007,11,14,03,05,1026.95
2007,11,14,03,06,1026.92
2007,11,14,03,07,1026.92
2007,11,14,03,08,1026.89
2007,11,14,03,09,1026.86
2007,11,14,03,10,1026.89
2007,11,14,03,11,1026.89
2007,11,14,03,12,1026.89
2007,11,14,03,13,1026.86
2007,11,14,03,14,1026.86
2007,11,14,03,15,1026.79
2007,11,14,03,16,1026.75
2007,11,14,03,17,1026.72
2007,11,14,03,18,1026.75
2007,11,14,03,19,1026.72
2007,11,14,03,20,1026.75
2007,11,14,03,21,1026.72
2007,11,14,03,22,1026.72
2007,11,14,03,23,1026.69
2007,11,14,03,24,1026.69
2007,11,14,03,25,1026.72
2007,11,14,03,26,1026.72
2007,11,14,03,27,1026.72
2007,11,14,03,28,1026.69
2007,11,14,03,29,1026.69
2007,11,14,03,30,1026.65
2007,11,14,03,31,1026.65
2007,11,14,03,32,1026.70
2007,11,14,03,33,1026.75
2007,11,14,03,34,1026.72
2007,11,14,03,35,1026.72
2007,11,14,03,36,1026.69
2007,11,14,03,37,1026.69
2007,11,14,03,38,1026.65
2007,11,14,03,39,1026.68
2007,11,14,03,40,1026.63
2007,11,14,03,41,1026.69
2007,11,14,03,42,1026.69
2007,11,14,03,43,1026.69
2007,11,14,03,44,1026.69
2007,11,14,03,45,1026.65
2007,11,14,03,46,1026.65
2007,11,14,03,47,1026.69
2007,11,14,03,48,1026.62
2007,11,14,03,49,1026.62
2007,11,14,03,50,1026.62
2007,11,14,03,51,1026.58
2007,11,14,03,52,1026.55
2007,11,14,03,53,1026.52
2007,11,14,03,54,1026.55
2007,11,14,03,55,1026.52
2007,11,14,03,56,1026.48
2007,11,14,03,57,1026.45
2007,11,14,03,58,1026.47
2007,11,14,03,59,1026.41
2007,11,14,04,00,1026.38
2007,11,14,04,01,1026.37
2007,11,14,04,02,1026.31
2007,11,14,04,03,1026.35
2007,11,14,04,04,1026.30
2007,11,14,04,05,1026.21
2007,11,14,04,06,1026.21
2007,11,14,04,07,1026.21
2007,11,14,04,08,1026.25
2007,11,14,04,09,1026.20
2007,11,14,04,10,1026.11
2007,11,14,04,11,1026.07
2007,11,14,04,12,1026.01
2007,11,14,04,13,1025.97
2007,11,14,04,14,1025.94
2007,11,14,04,15,1025.94
2007,11,14,04,16,1025.91
2007,11,14,04,17,1025.87
2007,11,14,04,18,1025.84
2007,11,14,04,19,1025.81
2007,11,14,04,20,1025.77
2007,11,14,04,21,1025.74
2007,11,14,04,22,1025.74
2007,11,14,04,23,1025.70
2007,11,14,04,24,1025.67
2007,11,14,04,25,1025.64
2007,11,14,04,26,1025.64
2007,11,14,04,27,1025.60
2007,11,14,04,28,1025.53
2007,11,14,04,29,1025.50
2007,11,14,04,30,1025.47
2007,11,14,04,31,1025.50
2007,11,14,04,32,1025.47
2007,11,14,04,33,1025.46
2007,11,14,04,34,1025.40
2007,11,14,04,35,1025.40
2007,11,14,04,36,1025.40
2007,11,14,04,37,1025.40
2007,11,14,04,38,1025.30
2007,11,14,04,39,1025.30
2007,11,14,04,40,1025.26
2007,11,14,04,41,1025.26
2007,11,14,04,42,1025.26
2007,11,14,04,43,1025.30
2007,11,14,04,44,1025.26
2007,11,14,04,45,1025.26
2007,11,14,04,46,1025.26
2007,11,14,04,47,1025.26
2007,11,14,04,48,1025.26
2007,11,14,04,49,1025.26
2007,11,14,04,50,1025.26
2007,11,14,04,51,1025.26
2007,11,14,04,52,1025.26
2007,11,14,04,53,1025.26
2007,11,14,04,54,1025.22
2007,11,14,04,55,1025.16
2007,11,14,04,56,1025.12
2007,11,14,04,57,1025.08
2007,11,14,04,58,1025.03
2007,11,14,04,59,1024.99
2007,11,14,05,00,1024.99
2007,11,14,05,01,1024.99
2007,11,14,05,02,1024.96
2007,11,14,05,03,1024.96
2007,11,14,05,04,1024.92
2007,11,14,05,05,1024.92
2007,11,14,05,06,1024.89
2007,11,14,05,07,1024.89
2007,11,14,05,08,1024.89
2007,11,14,05,09,1024.89
2007,11,14,05,10,1024.92
2007,11,14,05,11,1024.92
2007,11,14,05,12,1024.92
2007,11,14,05,13,1024.96
2007,11,14,05,14,1024.89
2007,11,14,05,15,1024.92
2007,11,14,05,16,1024.86
2007,11,14,05,17,1024.82
2007,11,14,05,18,1024.79
2007,11,14,05,19,1024.79
2007,11,14,05,20,1024.76
2007,11,14,05,21,1024.72
2007,11,14,05,22,1024.65
2007,11,14,05,23,1024.65
2007,11,14,05,24,1024.65
2007,11,14,05,25,1024.65
2007,11,14,05,26,1024.59
2007,11,14,05,27,1024.55
2007,11,14,05,28,1024.48
2007,11,14,05,29,1024.48
2007,11,14,05,30,1024.45
2007,11,14,05,31,1024.42
2007,11,14,05,32,1024.38
2007,11,14,05,33,1024.38
2007,11,14,05,34,1024.35
2007,11,14,05,35,1024.35
2007,11,14,05,36,1024.32
2007,11,14,05,37,1024.28
2007,11,14,05,38,1024.25
2007,11,14,05,39,1024.25
2007,11,14,05,40,1024.21
2007,11,14,05,41,1024.21
2007,11,14,05,42,1024.21
2007,11,14,05,43,1024.21
2007,11,14,05,44,1024.18
2007,11,14,05,45,1024.15
2007,11,14,05,46,1024.11
2007,11,14,05,47,1024.04
2007,11,14,05,48,1024.03
2007,11,14,05,49,1023.94
2007,11,14,05,50,1023.94
2007,11,14,05,51,1023.91
2007,11,14,05,52,1023.91
2007,11,14,05,53,1023.91
2007,11,14,05,54,1023.88
2007,11,14,05,55,1023.88
2007,11,14,05,56,1023.88
2007,11,14,05,57,1023.91
2007,11,14,05,58,1023.88
2007,11,14,05,59,1023.91
2007,11,14,06,00,1023.94
2007,11,14,06,01,1023.98
2007,11,14,06,02,1023.91
2007,11,14,06,03,1023.94
2007,11,14,06,04,1023.97
2007,11,14,06,05,1023.94
2007,11,14,06,06,1023.94
2007,11,14,06,07,1023.94
2007,11,14,06,08,1023.91
2007,11,14,06,09,1023.94
2007,11,14,06,10,1023.91
2007,11,14,06,11,1023.91
2007,11,14,06,12,1023.90
2007,11,14,06,13,1023.81
2007,11,14,06,14,1023.81
2007,11,14,06,15,1023.77
2007,11,14,06,16,1023.81
2007,11,14,06,17,1023.74
2007,11,14,06,18,1023.74
2007,11,14,06,19,1023.71
2007,11,14,06,20,1023.67
2007,11,14,06,21,1023.67
2007,11,14,06,22,1023.64
2007,11,14,06,23,1023.64
2007,11,14,06,24,1023.60
2007,11,14,06,25,1023.57
2007,11,14,06,26,1023.57
2007,11,14,06,27,1023.54
2007,11,14,06,28,1023.54
2007,11,14,06,29,1023.57
2007,11,14,06,30,1023.50
2007,11,14,06,31,1023.47
2007,11,14,06,32,1023.49
2007,11,14,06,33,1023.43
2007,11,14,06,34,1023.43
2007,11,14,06,35,1023.37
2007,11,14,06,36,1023.37
2007,11,14,06,37,1023.37
2007,11,14,06,38,1023.37
2007,11,14,06,39,1023.33
2007,11,14,06,40,1023.27
2007,11,14,06,41,1023.27
2007,11,14,06,42,1023.23
2007,11,14,06,43,1023.20
2007,11,14,06,44,1023.16
2007,11,14,06,45,1023.16
2007,11,14,06,46,1023.10
2007,11,14,06,47,1023.10
2007,11,14,06,48,1023.06
2007,11,14,06,49,1023.06
2007,11,14,06,50,1023.05
2007,11,14,06,51,1022.99
2007,11,14,06,52,1022.99
2007,11,14,06,53,1023.03
2007,11,14,06,54,1022.99
2007,11,14,06,55,1022.99
2007,11,14,06,56,1022.96
2007,11,14,06,57,1022.89
2007,11,14,06,58,1022.82
2007,11,14,06,59,1022.72
2007,11,14,07,00,1022.72
2007,11,14,07,01,1022.72
2007,11,14,07,02,1022.72
2007,11,14,07,03,1022.69
2007,11,14,07,04,1022.62
2007,11,14,07,05,1022.59
2007,11,14,07,06,1022.59
2007,11,14,07,07,1022.59
2007,11,14,07,08,1022.55
2007,11,14,07,09,1022.59
2007,11,14,07,10,1022.59
2007,11,14,07,11,1022.55
2007,11,14,07,12,1022.59
2007,11,14,07,13,1022.59
2007,11,14,07,14,1022.62
2007,11,14,07,15,1022.59
2007,11,14,07,16,1022.55
2007,11,14,07,17,1022.55
2007,11,14,07,18,1022.49
2007,11,14,07,19,1022.52
2007,11,14,07,20,1022.52
2007,11,14,07,21,1022.52
2007,11,14,07,22,1022.52
2007,11,14,07,23,1022.52
2007,11,14,07,24,1022.49
2007,11,14,07,25,1022.49
2007,11,14,07,26,1022.49
2007,11,14,07,27,1022.45
2007,11,14,07,28,1022.39
2007,11,14,07,29,1022.42
2007,11,14,07,30,1022.42
2007,11,14,07,31,1022.39
2007,11,14,07,32,1022.32
2007,11,14,07,33,1022.32
2007,11,14,07,34,1022.28
2007,11,14,07,35,1022.32
2007,11,14,07,36,1022.32
2007,11,14,07,37,1022.36
2007,11,14,07,38,1022.45
2007,11,14,07,39,1022.34
2007,11,14,07,40,1022.25
2007,11,14,07,41,1022.17
2007,11,14,07,42,1022.05
2007,11,14,07,43,1021.98
2007,11,14,07,44,1021.94
2007,11,14,07,45,1022.01
2007,11,14,07,46,1022.08
2007,11,14,07,47,1022.08
2007,11,14,07,48,1022.01
2007,11,14,07,49,1021.94
2007,11,14,07,50,1021.88
2007,11,14,07,51,1021.91
2007,11,14,07,52,1021.91
2007,11,14,07,53,1021.84
2007,11,14,07,54,1021.81
2007,11,14,07,55,1021.77
2007,11,14,07,56,1021.67
2007,11,14,07,57,1021.64
2007,11,14,07,58,1021.64
2007,11,14,07,59,1021.57
2007,11,14,08,00,1021.57
2007,11,14,08,01,1021.57
2007,11,14,08,02,1021.47
2007,11,14,08,03,1021.44
2007,11,14,08,04,1021.50
2007,11,14,08,05,1021.50
2007,11,14,08,06,1021.54
2007,11,14,08,07,1021.54
2007,11,14,08,08,1021.50
2007,11,14,08,09,1021.57
2007,11,14,08,10,1021.47
2007,11,14,08,11,1021.39
2007,11,14,08,12,1021.30
2007,11,14,08,13,1021.27
2007,11,14,08,14,1021.20
2007,11,14,08,15,1021.17
2007,11,14,08,16,1021.17
2007,11,14,08,17,1021.17
2007,11,14,08,18,1021.17
2007,11,14,08,19,1021.17
2007,11,14,08,20,1021.13
2007,11,14,08,21,1021.10
2007,11,14,08,22,1021.10
2007,11,14,08,23,1021.06
2007,11,14,08,24,1021.00
2007,11,14,08,25,1021.00
2007,11,14,08,26,1020.96
2007,11,14,08,27,1020.85
2007,11,14,08,28,1020.76
2007,11,14,08,29,1020.69
2007,11,14,08,30,1020.63
2007,11,14,08,31,1020.73
2007,11,14,08,32,1020.79
2007,11,14,08,33,1020.83
2007,11,14,08,34,1020.83
2007,11,14,08,35,1020.73
2007,11,14,08,36,1020.73
2007,11,14,08,37,1020.79
2007,11,14,08,38,1020.87
2007,11,14,08,39,1020.99
2007,11,14,08,40,1020.88
2007,11,14,08,41,1020.78
2007,11,14,08,42,1020.66
2007,11,14,08,43,1020.69
2007,11,14,08,44,1020.69
2007,11,14,08,45,1020.69
2007,11,14,08,46,1020.73
2007,11,14,08,47,1020.68
2007,11,14,08,48,1020.56
2007,11,14,08,49,1020.52
2007,11,14,08,50,1020.56
2007,11,14,08,51,1020.59
2007,11,14,08,52,1020.59
2007,11,14,08,53,1020.59
2007,11,14,08,54,1020.59
2007,11,14,08,55,1020.59
2007,11,14,08,56,1020.49
2007,11,14,08,57,1020.49
2007,11,14,08,58,1020.45
2007,11,14,08,59,1020.39
2007,11,14,09,00,1020.39
2007,11,14,09,01,1020.32
2007,11,14,09,02,1020.35
2007,11,14,09,03,1020.35
2007,11,14,09,04,1020.35
2007,11,14,09,05,1020.35
2007,11,14,09,06,1020.40
2007,11,14,09,07,1020.52
2007,11,14,09,08,1020.56
2007,11,14,09,09,1020.59
2007,11,14,09,10,1020.62
2007,11,14,09,11,1020.62
2007,11,14,09,12,1020.59
2007,11,14,09,13,1020.56
2007,11,14,09,14,1020.52
2007,11,14,09,15,1020.45
2007,11,14,09,16,1020.42
2007,11,14,09,17,1020.35
2007,11,14,09,18,1020.39
2007,11,14,09,19,1020.35
2007,11,14,09,20,1020.39
2007,11,14,09,21,1020.35
2007,11,14,09,22,1020.28
2007,11,14,09,23,1020.17
2007,11,14,09,24,1020.07
2007,11,14,09,25,1019.98
2007,11,14,09,26,1019.98
2007,11,14,09,27,1019.94
2007,11,14,09,28,1019.81
2007,11,14,09,29,1019.81
2007,11,14,09,30,1019.81
2007,11,14,09,31,1019.78
2007,11,14,09,32,1019.81
2007,11,14,09,33,1019.74
2007,11,14,09,34,1019.78
2007,11,14,09,35,1019.78
2007,11,14,09,36,1019.80
2007,11,14,09,37,1019.71
2007,11,14,09,38,1019.71
2007,11,14,09,39,1019.64
2007,11,14,09,40,1019.68
2007,11,14,09,41,1019.79
2007,11,14,09,42,1019.88
2007,11,14,09,43,1019.95
2007,11,14,09,44,1019.95
2007,11,14,09,45,1019.95
2007,11,14,09,46,1019.95
2007,11,14,09,47,1019.98
2007,11,14,09,48,1019.97
2007,11,14,09,49,1019.85
2007,11,14,09,50,1019.78
2007,11,14,09,51,1019.78
2007,11,14,09,52,1019.73
2007,11,14,09,53,1019.61
2007,11,14,09,54,1019.44
2007,11,14,09,55,1019.30
2007,11,14,09,56,1019.34
2007,11,14,09,57,1019.39
2007,11,14,09,58,1019.26
2007,11,14,09,59,1019.10
2007,11,14,10,00,1019.10
2007,11,14,10,01,1019.13
2007,11,14,10,02,1019.17
2007,11,14,10,03,1019.20
2007,11,14,10,04,1019.24
2007,11,14,10,05,1019.17
2007,11,14,10,06,1019.20
2007,11,14,10,07,1019.24
2007,11,14,10,08,1019.20
2007,11,14,10,09,1019.20
2007,11,14,10,10,1019.24
2007,11,14,10,11,1019.20
2007,11,14,10,12,1019.20
2007,11,14,10,13,1019.20
2007,11,14,10,14,1019.13
2007,11,14,10,15,1019.13
2007,11,14,10,16,1019.13
2007,11,14,10,17,1019.13
2007,11,14,10,18,1019.10
2007,11,14,10,19,1019.10
2007,11,14,10,20,1019.02
2007,11,14,10,21,1018.90
2007,11,14,10,22,1018.83
2007,11,14,10,23,1018.81
2007,11,14,10,24,1018.96
2007,11,14,10,25,1018.96
2007,11,14,10,26,1018.95
2007,11,14,10,27,1018.83
2007,11,14,10,28,1018.76
2007,11,14,10,29,1018.76
2007,11,14,10,30,1018.76
2007,11,14,10,31,1018.69
2007,11,14,10,32,1018.66
2007,11,14,10,33,1018.66
2007,11,14,10,34,1018.63
2007,11,14,10,35,1018.59
2007,11,14,10,36,1018.63
2007,11,14,10,37,1018.66
2007,11,14,10,38,1018.69
2007,11,14,10,39,1018.66
2007,11,14,10,40,1018.66
2007,11,14,10,41,1018.66
2007,11,14,10,42,1018.69
2007,11,14,10,43,1018.63
2007,11,14,10,44,1018.56
2007,11,14,10,45,1018.52
2007,11,14,10,46,1018.56
2007,11,14,10,47,1018.52
2007,11,14,10,48,1018.55
2007,11,14,10,49,1018.46
2007,11,14,10,50,1018.39
2007,11,14,10,51,1018.32
2007,11,14,10,52,1018.32
2007,11,14,10,53,1018.29
2007,11,14,10,54,1018.19
2007,11,14,10,55,1018.12
2007,11,14,10,56,1018.05
2007,11,14,10,57,1017.98
2007,11,14,10,58,1017.98
2007,11,14,10,59,1017.95
2007,11,14,11,00,1017.85
2007,11,14,11,01,1017.71
2007,11,14,11,02,1017.68
2007,11,14,11,03,1017.63
2007,11,14,11,04,1017.47
2007,11,14,11,05,1017.37
2007,11,14,11,06,1017.31
2007,11,14,11,07,1017.34
2007,11,14,11,08,1017.34
2007,11,14,11,09,1017.34
2007,11,14,11,10,1017.34
2007,11,14,11,11,1017.31
2007,11,14,11,12,1017.23
2007,11,14,11,13,1017.14
2007,11,14,11,14,1017.00
2007,11,14,11,15,1016.97
2007,11,14,11,16,1016.97
2007,11,14,11,17,1017.10
2007,11,14,11,18,1017.07
2007,11,14,11,19,1017.07
2007,11,14,11,20,1017.03
2007,11,14,11,21,1017.10
2007,11,14,11,22,1017.07
2007,11,14,11,23,1017.14
2007,11,14,11,24,1017.10
2007,11,14,11,25,1017.14
2007,11,14,11,26,1017.14
2007,11,14,11,27,1017.10
2007,11,14,11,28,1017.09
2007,11,14,11,29,1016.97
2007,11,14,11,30,1016.92
2007,11,14,11,31,1016.80
2007,11,14,11,32,1016.73
2007,11,14,11,33,1016.56
2007,11,14,11,34,1016.49
2007,11,14,11,35,1016.42
2007,11,14,11,36,1016.43
2007,11,14,11,37,1016.53
2007,11,14,11,38,1016.46
2007,11,14,11,39,1016.46
2007,11,14,11,40,1016.36
2007,11,14,11,41,1016.39
2007,11,14,11,42,1016.39
2007,11,14,11,43,1016.39
2007,11,14,11,44,1016.36
2007,11,14,11,45,1016.32
2007,11,14,11,46,1016.22
2007,11,14,11,47,1016.26
2007,11,14,11,48,1016.26
2007,11,14,11,49,1016.22
2007,11,14,11,50,1016.22
2007,11,14,11,51,1016.18
2007,11,14,11,52,1016.09
2007,11,14,11,53,1016.04
2007,11,14,11,54,1015.88
2007,11,14,11,55,1015.88
2007,11,14,11,56,1015.95
2007,11,14,11,57,1015.88
2007,11,14,11,58,1015.82
2007,11,14,11,59,1015.82
2007,11,14,12,00,1015.82
2007,11,14,12,01,1015.75
2007,11,14,12,02,1015.71
2007,11,14,12,03,1015.64
2007,11,14,12,04,1015.48
2007,11,14,12,05,1015.44
2007,11,14,12,06,1015.44
2007,11,14,12,07,1015.41
2007,11,14,12,08,1015.38
2007,11,14,12,09,1015.44
2007,11,14,12,10,1015.38
2007,11,14,12,11,1015.23
2007,11,14,12,12,1015.09
2007,11,14,12,13,1015.00
2007,11,14,12,14,1015.00
2007,11,14,12,15,1014.97
2007,11,14,12,16,1015.00
2007,11,14,12,17,1014.97
2007,11,14,12,18,1014.97
2007,11,14,12,19,1014.97
2007,11,14,12,20,1014.97
2007,11,14,12,21,1014.99
2007,11,14,12,22,1014.90
2007,11,14,12,23,1014.86
2007,11,14,12,24,1014.77
2007,11,14,12,25,1014.80
2007,11,14,12,26,1014.83
2007,11,14,12,27,1014.80
2007,11,14,12,28,1014.77
2007,11,14,12,29,1014.66
2007,11,14,12,30,1014.63
2007,11,14,12,31,1014.70
2007,11,14,12,32,1014.73
2007,11,14,12,33,1014.53
2007,11,14,12,34,1014.46
2007,11,14,12,35,1014.39
2007,11,14,12,36,1014.36
2007,11,14,12,37,1014.36
2007,11,14,12,38,1014.33
2007,11,14,12,39,1014.33
2007,11,14,12,40,1014.33
2007,11,14,12,41,1014.36
2007,11,14,12,42,1014.36
2007,11,14,12,43,1014.36
2007,11,14,12,44,1014.26
2007,11,14,12,45,1014.15
2007,11,14,12,46,1014.05
2007,11,14,12,47,1014.09
2007,11,14,12,48,1014.05
2007,11,14,12,49,1013.99
2007,11,14,12,50,1014.05
2007,11,14,12,51,1014.02
2007,11,14,12,52,1014.02
2007,11,14,12,53,1014.02
2007,11,14,12,54,1013.99
2007,11,14,12,55,1013.89
2007,11,14,12,56,1013.94
2007,11,14,12,57,1013.77
2007,11,14,12,58,1013.65
2007,11,14,12,59,1013.65
2007,11,14,13,00,1013.65
2007,11,14,13,01,1013.65
2007,11,14,13,02,1013.60
2007,11,14,13,03,1013.52
2007,11,14,13,04,1013.61
2007,11,14,13,05,1013.61
2007,11,14,13,06,1013.59
2007,11,14,13,07,1013.68
2007,11,14,13,08,1013.58
2007,11,14,13,09,1013.61
2007,11,14,13,10,1013.58
2007,11,14,13,11,1013.55
2007,11,14,13,12,1013.58
2007,11,14,13,13,1013.61
2007,11,14,13,14,1013.61
2007,11,14,13,15,1013.61
2007,11,14,13,16,1013.55
2007,11,14,13,17,1013.44
2007,11,14,13,18,1013.34
2007,11,14,13,19,1013.31
2007,11,14,13,20,1013.21
2007,11,14,13,21,1013.14
2007,11,14,13,22,1013.06
2007,11,14,13,23,1012.97
2007,11,14,13,24,1013.04
2007,11,14,13,25,1012.97
2007,11,14,13,26,1012.90
2007,11,14,13,27,1012.89
2007,11,14,13,28,1012.76
2007,11,14,13,29,1012.66
2007,11,14,13,30,1012.56
2007,11,14,13,31,1012.63
2007,11,14,13,32,1012.67
2007,11,14,13,33,1012.60
2007,11,14,13,34,1012.56
2007,11,14,13,35,1012.60
2007,11,14,13,36,1012.60
2007,11,14,13,37,1012.67
2007,11,14,13,38,1012.60
2007,11,14,13,39,1012.63
2007,11,14,13,40,1012.63
2007,11,14,13,41,1012.67
2007,11,14,13,42,1012.66
2007,11,14,13,43,1012.50
2007,11,14,13,44,1012.40
2007,11,14,13,45,1012.33
2007,11,14,13,46,1012.23
2007,11,14,13,47,1012.23
2007,11,14,13,48,1012.09
2007,11,14,13,49,1012.09
2007,11,14,13,50,1011.99
2007,11,14,13,51,1011.92
2007,11,14,13,52,1011.92
2007,11,14,13,53,1011.99
2007,11,14,13,54,1011.92
2007,11,14,13,55,1011.99
2007,11,14,13,56,1011.79
2007,11,14,13,57,1011.89
2007,11,14,13,58,1011.96
2007,11,14,13,59,1012.06
2007,11,14,14,00,1011.99
2007,11,14,14,01,1011.99
2007,11,14,14,02,1011.89
2007,11,14,14,03,1011.85
2007,11,14,14,04,1011.79
2007,11,14,14,05,1011.79
2007,11,14,14,06,1011.75
2007,11,14,14,07,1011.72
2007,11,14,14,08,1011.67
2007,11,14,14,09,1011.55
2007,11,14,14,10,1011.55
2007,11,14,14,11,1011.65
2007,11,14,14,12,1011.58
2007,11,14,14,13,1011.55
2007,11,14,14,14,1011.48
2007,11,14,14,15,1011.41
2007,11,14,14,16,1011.31
2007,11,14,14,17,1011.28
2007,11,14,14,18,1011.28
2007,11,14,14,19,1011.21
2007,11,14,14,20,1011.18
2007,11,14,14,21,1011.11
2007,11,14,14,22,1011.07
2007,11,14,14,23,1011.01
2007,11,14,14,24,1010.87
2007,11,14,14,25,1010.94
2007,11,14,14,26,1010.86
2007,11,14,14,27,1010.74
2007,11,14,14,28,1010.79
2007,11,14,14,29,1010.67
2007,11,14,14,30,1010.70
2007,11,14,14,31,1010.63
2007,11,14,14,32,1010.63
2007,11,14,14,33,1010.57
2007,11,14,14,34,1010.63
2007,11,14,14,35,1010.60
2007,11,14,14,36,1010.53
2007,11,14,14,37,1010.57
2007,11,14,14,38,1010.57
2007,11,14,14,39,1010.46
2007,11,14,14,40,1010.42
2007,11,14,14,41,1010.30
2007,11,14,14,42,1010.30
2007,11,14,14,43,1010.23
2007,11,14,14,44,1010.16
2007,11,14,14,45,1010.16
2007,11,14,14,46,1010.13
2007,11,14,14,47,1010.09
2007,11,14,14,48,1010.02
2007,11,14,14,49,1010.09
2007,11,14,14,50,1010.09
2007,11,14,14,51,1010.13
2007,11,14,14,52,1010.02
2007,11,14,14,53,1010.02
2007,11,14,14,54,1010.02
2007,11,14,14,55,1009.99
2007,11,14,14,56,1009.92
2007,11,14,14,57,1009.89
2007,11,14,14,58,1009.91
2007,11,14,14,59,1009.79
2007,11,14,15,00,1009.82
2007,11,14,15,01,1009.82
2007,11,14,15,02,1009.79
2007,11,14,15,03,1009.82
2007,11,14,15,04,1009.75
2007,11,14,15,05,1009.72
2007,11,14,15,06,1009.75
2007,11,14,15,07,1009.72
2007,11,14,15,08,1009.69
2007,11,14,15,09,1009.65
2007,11,14,15,10,1009.65
2007,11,14,15,11,1009.62
2007,11,14,15,12,1009.62
2007,11,14,15,13,1009.58
2007,11,14,15,14,1009.55
2007,11,14,15,15,1009.52
2007,11,14,15,16,1009.42
2007,11,14,15,17,1009.31
2007,11,14,15,18,1009.18
2007,11,14,15,19,1009.08
2007,11,14,15,20,1008.97
2007,11,14,15,21,1008.94
2007,11,14,15,22,1008.93
2007,11,14,15,23,1008.84
2007,11,14,15,24,1008.94
2007,11,14,15,25,1009.00
2007,11,14,15,26,1008.87
2007,11,14,15,27,1008.84
2007,11,14,15,28,1008.77
2007,11,14,15,29,1008.70
2007,11,14,15,30,1008.53
2007,11,14,15,31,1008.37
2007,11,14,15,32,1008.37
2007,11,14,15,33,1008.43
2007,11,14,15,34,1008.37
2007,11,14,15,35,1008.38
2007,11,14,15,36,1008.47
2007,11,14,15,37,1008.53
2007,11,14,15,38,1008.53
2007,11,14,15,39,1008.53
2007,11,14,15,40,1008.60
2007,11,14,15,41,1008.64
2007,11,14,15,42,1008.53
2007,11,14,15,43,1008.40
2007,11,14,15,44,1008.23
2007,11,14,15,45,1008.20
2007,11,14,15,46,1008.13
2007,11,14,15,47,1007.99
2007,11,14,15,48,1007.96
2007,11,14,15,49,1007.88
2007,11,14,15,50,1007.72
2007,11,14,15,51,1007.69
2007,11,14,15,52,1007.59
2007,11,14,15,53,1007.52
2007,11,14,15,54,1007.48
2007,11,14,15,55,1007.48
2007,11,14,15,56,1007.52